sat.trackr.live / text

‹ back to catalog

SITRO-AIS-64

NORAD 67292 · 2025-313AW

PAYLOAD ACTIVE UNKNOWN

§ Identity

Operator
Country
CIS
Launch date
2025-12-28
Launch site
VOSTO
Launch vehicle
Mass (kg)
RCS (m²)

External: N2YO · Heavens-Above · Gunter

§ Orbital elements

Epoch: 2026-05-25T02:44:40.178688Z

Period
94.46 min
Inclination
97.3940°
Eccentricity
0.0010517
Mean motion
15.24500277 rev/d
Perigee alt
485.1 km
Apogee alt
499.5 km
Semi-major
6,870.4 km
B*
3.7238e-4
RAAN
220.4750°
Arg perigee
81.4389°
Mean anomaly
278.8040°
Rev number
2,246

§ Raw data

SITRO-AIS-641 67292U 25313AW  26145.11435392  .00009100  00000+0  37238-3 0  99912 67292  97.3940 220.4750 0010517  81.4389 278.8040 15.24500277 22463

JSON: /api/v1/satellites/67292 · /tle

For live sub-satellite position, see the globe view (requires WebGL).

§ Visibility from observer

Set your observer location to see the next 7 days of passes ≥ 10°. The values pass through the URL so the page stays shareable.

No JS? Fill the form by hand. The geolocation button needs JavaScript.